星链-34362 (STARLINK-34362)

导读

STARLINK-34362是美国SpaceX星链计划中的一颗卫星,于2025年6月8日发射。作为星链星座的组成部分,它旨在为全球提供高速低延迟互联网覆盖,尤其服务偏远地区与网络基础设施薄弱区域。该卫星延续星链技术方案,依托大规模星座组网,助力全球互联网络覆盖能力的进一步拓展。

Basic Information
目录编号:
64292
目录名称:
STARLINK-34362
国际标识:
2025-123B
轨道中心:
EARTH
卫星名称:
星链-34362
卫星全名:
星链-34362 (STARLINK-34362)
卫星状态:
在轨 (已飞行460 天)
发射日期:
2025-06-08 UTC
国别 :
美国 (US)
星等 :
--
This satellite is enrolled in the Space Conjunction Data Service (SCDS) and the current flight risk assessment level is: No High Risk
Orbit Information
数据来源 国际轨道数据
星历时间: 2026-09-11T06:49:21+0800
17小时前
查看轨道信息
半长轴: 6855.168km
偏心率: 0.0003265
轨道倾角: 70.000°
近地点辐角 270.800°
升交点赤经 86.368°
平近点角 89.281°
近地点: 474.792km
远地点: 479.27km
周期: 94.143分钟
每日圈数: 15.295921
Detailed Information
固有亮度:
5
最大亮度:
2.5
卫星平台:
Starlink V1.0
覆盖范围:
全球
运营商:
太空探索技术公司
运营商所在国:
美国
制造商(研发单位):
太空探索技术公司
制造商所在国:
美国
使用方式:
暂无
Satellite Introduction
Starlink 计划是 SpaceX 推出的全球卫星互联网项目,通过发射低轨道卫星,为全球尤其是偏远地区提供高速、低延迟的互联网服务。自 2019 年起,Starlink 已部署数千颗卫星,旨在缩小全球数字鸿沟,推动互联网普及。该项目还为军事、航空等行业提供通信支持,带来广泛经济效益。
2D Orbit Map
3D Orbit Map
Orbit Altitude Analysis Chart
Orbit Inclination Analysis Chart
Orbit Comprehensive Analysis Chart
View Comprehensive Chart
Conjunction Data List
Event ID Objects TCA Miss Dist (km) Collision Risk Probability Collision Risk Index (CRI) Action
CDM_260912-225104-832106-429221
2026-09-12T
22:51:37+0000
0.874 km
远距离
3.753998E-5 中风险 0.66
CDM_260912-033905-811906-429221
2026-09-12T
03:39:19+0000
2.146 km
极远距离
1.691474E-6 低风险 0.4
CDM_260913-141205-610906-429221
2026-09-13T
14:12:04+0000
2.434 km
极远距离
1.468571E-6 低风险 0.38
CDM_260910-194706-219806-429221
2026-09-10T
19:47:45+0000
2.829 km
极远距离
1.284172E-6 低风险 0.37
CDM_260913-092805-923806-429222
2026-09-13T
09:28:41+0000
2.652 km
极远距离
1.179862E-6 低风险 0.36
CDM_260913-172006-340906-429221
2026-09-13T
17:20:13+0000
2.938 km
极远距离
8.245833E-7 极低风险 0.33
Miss Distance Evolution Trend with All Objects
Collision Probability Evolution Trend with All Objects